Defiance, OH

4:39 AM EST on November 18, 2019 (GMT -0500)
Defiance Memorial

Weather History for KDFI - September, 2019

Change the Weather History Date:

Tuesday, September 17, 2019

  Actual Average Record
Temperature  
Mean Temperature 70 °F -  
Max Temperature 78 °F 72 °F 92 °F (1955)
Min Temperature 63 °F 52 °F 33 °F (1959)
Cooling Degree Days 6    
Growing Degree Days 20 (Base 50)    
Moisture  
Dew Point 62 °F    
Average Humidity 78    
Maximum Humidity 93    
Minimum Humidity 58    
Precipitation  
Precipitation 0.00 in - - ()
Sea Level Pressure  
Sea Level Pressure 30.16 in    
Wind  
Wind Speed 5 mph (NE)    
Max Wind Speed 9 mph    
Max Gust Speed -    
Visibility 8 miles    
Events      
Averages and records for this station are not official NWS values.
T = Trace of Precipitation, MM = Missing Value Source: NWS Daily Summary

Daily Weather History Graph

Daily Weather History Graph

Search for Another Location

Airport or City:

Astronomy

Sep. 17, 2019 Rise Set
Actual Time 7:19 AM EDT 7:43 PM EDT
Civil Twilight 6:52 AM EDT 8:11 PM EDT
Nautical Twilight 6:19 AM EDT 8:44 PM EDT
Astronomical Twilight 5:46 AM EDT 9:17 PM EDT
Moon 9:44 PM EDT (9/17) 10:25 AM EDT (9/17)
Length of Visible Light 13h 19m
Length of Day
12h 23m
Waning Gibbous, 89% of the Moon is Illuminated
Sep 17
Waning Gibbous
Sep 21
Last Quarter
Sep 28
New
Oct 5
First Quarter
Oct 13
Full

Hourly Weather History & Observations

Time (EDT) Temp. Dew Point Humidity Pressure Visibility Wind Dir Wind Speed Gust Speed Precip Events Conditions
12:53 AM 66.9 °F 63.0 °F 87% 30.11 in 10.0 mi NE 3.5 mph - N/A   Clear
1:53 AM 66.9 °F 63.0 °F 87% 30.12 in 10.0 mi ENE 5.8 mph - N/A   Partly Cloudy
2:10 AM 66.9 °F 63.0 °F 87% 30.13 in 9.0 mi NE 4.6 mph - N/A   Mostly Cloudy
2:20 AM 66.9 °F 63.0 °F 87% 30.13 in 9.0 mi ENE 4.6 mph - N/A   Scattered Clouds
2:53 AM 66.0 °F 63.0 °F 90% 30.12 in 8.0 mi NE 4.6 mph - N/A   Clear
3:53 AM 64.9 °F 63.0 °F 93% 30.13 in 4.0 mi NE 3.5 mph - N/A   Clear
4:03 AM 64.9 °F 63.0 °F 93% 30.14 in 4.0 mi ENE 4.6 mph - N/A   Scattered Clouds
4:12 AM 66.0 °F 63.0 °F 90% 30.14 in 4.0 mi ENE 4.6 mph - N/A   Mostly Cloudy
4:53 AM 66.0 °F 63.0 °F 90% 30.14 in 5.0 mi ENE 6.9 mph - N/A   Overcast
5:53 AM 66.0 °F 63.0 °F 90% 30.15 in 4.0 mi NE 5.8 mph - N/A   Overcast
6:53 AM 66.0 °F 62.1 °F 87% 30.16 in 5.0 mi Variable 3.5 mph - N/A   Overcast
7:53 AM 66.0 °F 62.1 °F 87% 30.19 in 4.0 mi NNE 5.8 mph - N/A   Overcast
8:53 AM 66.0 °F 62.1 °F 87% 30.20 in 4.0 mi NNE 8.1 mph - N/A   Overcast
9:01 AM 66.0 °F 62.1 °F 87% 30.21 in 4.0 mi NNE 6.9 mph - N/A   Overcast
9:38 AM 66.0 °F 62.1 °F 87% 30.22 in 5.0 mi NE 5.8 mph - N/A   Overcast
9:53 AM 66.9 °F 62.1 °F 84% 30.21 in 5.0 mi NNE 5.8 mph - N/A   Haze
10:53 AM 68.0 °F 62.1 °F 81% 30.21 in 7.0 mi NNE 9.2 mph - N/A   Overcast
11:13 AM 72.0 °F 63.0 °F 73% 30.21 in 9.0 mi NNE 6.9 mph - N/A   Mostly Cloudy
11:53 AM 71.1 °F 62.1 °F 73% 30.21 in 10.0 mi Variable 6.9 mph - N/A   Overcast
12:53 PM 72.0 °F 62.1 °F 71% 30.20 in 10.0 mi NNE 4.6 mph - N/A   Mostly Cloudy
1:30 PM 73.9 °F 63.0 °F 68% 30.19 in 10.0 mi Variable 6.9 mph - N/A   Mostly Cloudy
1:39 PM 73.9 °F 62.1 °F 66% 30.19 in 10.0 mi NNE 3.5 mph - N/A   Mostly Cloudy
1:53 PM 73.9 °F 62.1 °F 66% 30.18 in 10.0 mi ESE 6.9 mph - N/A   Mostly Cloudy
2:13 PM 73.9 °F 62.1 °F 66% 30.19 in 10.0 mi ENE 6.9 mph - N/A   Scattered Clouds
2:53 PM 75.0 °F 61.0 °F 62% 30.16 in 10.0 mi East 8.1 mph - N/A   Mostly Cloudy
3:53 PM 77.0 °F 61.0 °F 58% 30.15 in 10.0 mi NE 6.9 mph - N/A   Partly Cloudy
4:53 PM 75.9 °F 60.1 °F 58% 30.14 in 10.0 mi ENE 8.1 mph - N/A   Partly Cloudy
5:53 PM 75.9 °F 60.1 °F 58% 30.14 in 10.0 mi East 9.2 mph - N/A   Clear
6:53 PM 73.0 °F 60.1 °F 64% 30.14 in 10.0 mi ENE 6.9 mph - N/A   Clear
7:53 PM 69.1 °F 60.1 °F 73% 30.14 in 10.0 mi ENE 5.8 mph - N/A   Clear
8:53 PM 66.9 °F 59.0 °F 76% 30.15 in 10.0 mi East 4.6 mph - N/A   Clear
9:53 PM 64.9 °F 57.9 °F 78% 30.16 in 10.0 mi ENE 5.8 mph - N/A   Clear
10:53 PM 64.0 °F 57.9 °F 80% 30.16 in 10.0 mi ENE 4.6 mph - N/A   Clear
11:53 PM 63.0 °F 57.9 °F 84% 30.17 in 10.0 mi Calm Calm - N/A   Clear